TimeCDT,TemperatureF,Dew PointF,Humidity,Sea Level PressureIn,VisibilityMPH,Wind Direction,Wind SpeedMPH,Gust SpeedMPH,PrecipitationIn,Events,Conditions,WindDirDegrees,DateUTC
12:40 AM,73.4,71.6,94,29.85,7.0,SE,17.3,-,N/A,,Scattered Clouds,130,2013-09-12 05:40:00
1:40 AM,73.4,71.6,94,29.86,7.0,SE,17.3,-,N/A,,Mostly Cloudy,130,2013-09-12 06:40:00
2:40 AM,73.4,71.6,94,29.85,7.0,SE,17.3,-,N/A,,Overcast,140,2013-09-12 07:40:00
3:40 AM,73.4,71.6,94,29.86,7.0,SE,15.0,-,N/A,,Overcast,140,2013-09-12 08:40:00
4:40 AM,73.4,71.6,94,29.83,7.0,SE,6.9,-,N/A,,Mostly Cloudy,130,2013-09-12 09:40:00
5:40 AM,75.2,71.6,89,29.84,7.0,SE,10.4,-,N/A,,Mostly Cloudy,130,2013-09-12 10:40:00
6:40 AM,75.2,69.8,83,29.84,7.0,SSE,6.9,-,N/A,,Overcast,150,2013-09-12 11:40:00
7:43 AM,75.2,71.6,89,29.86,7.0,SE,9.2,-,N/A,,Overcast,130,2013-09-12 12:43:00
8:41 AM,77.0,73.4,89,29.87,7.0,SE,6.9,-,N/A,,Overcast,130,2013-09-12 13:41:00
9:40 AM,78.8,75.2,89,29.91,7.0,SSE,11.5,-,N/A,,Overcast,150,2013-09-12 14:40:00
10:40 AM,78.8,73.4,83,29.89,6.0,SE,15.0,-,N/A,,Overcast,140,2013-09-12 15:40:00
11:42 AM,73.4,71.6,94,29.89,6.0,SE,11.5,-,N/A,,Overcast,130,2013-09-12 16:42:00
12:47 PM,75.2,73.4,94,29.86,7.0,SE,9.2,-,N/A,,Overcast,130,2013-09-12 17:47:00
1:44 PM,77.0,73.4,89,29.85,7.0,SE,8.1,-,N/A,,Overcast,130,2013-09-12 18:44:00
2:43 PM,75.2,71.6,89,29.84,7.0,ESE,17.3,-,N/A,,Overcast,110,2013-09-12 19:43:00
3:42 PM,73.4,69.8,88,29.85,7.0,East,9.2,-,N/A,,Overcast,90,2013-09-12 20:42:00
4:43 PM,75.2,73.4,94,29.80,7.0,East,9.2,-,N/A,,Mostly Cloudy,80,2013-09-12 21:43:00
5:46 PM,77.0,73.4,89,29.80,8.0,East,11.5,-,N/A,,Mostly Cloudy,90,2013-09-12 22:46:00
6:47 PM,75.2,73.4,94,29.80,7.0,East,8.1,-,N/A,,Mostly Cloudy,90,2013-09-12 23:47:00
7:46 PM,75.2,73.4,94,29.81,7.0,East,5.8,-,N/A,,Mostly Cloudy,100,2013-09-13 00:46:00
8:49 PM,73.4,73.4,100,29.82,7.0,East,5.8,-,N/A,,Scattered Clouds,100,2013-09-13 01:49:00
9:51 PM,71.6,69.8,94,29.87,7.0,ESE,13.8,-,N/A,,Mostly Cloudy,110,2013-09-13 02:51:00
10:47 PM,69.8,69.8,100,29.85,7.0,ESE,10.4,-,N/A,,Overcast,120,2013-09-13 03:47:00
11:53 PM,69.8,69.8,100,29.84,7.0,ESE,6.9,-,N/A,,Overcast,110,2013-09-13 04:53:00